Weather reports worldwide

Advertisment
West Freugh, United Kingdom (3132): temperature & dewpoint: 16.11.2017 05:00:00 - 22.11.2017 05:00:00 (GMT)West Freugh, United Kingdom (3132): wind speed & gusts: 16.11.2017 05:00:00 - 22.11.2017 05:00:00 (GMT)West Freugh, United Kingdom (3132): wind direction: 16.11.2017 05:00:00 - 22.11.2017 05:00:00 (GMT)West Freugh, United Kingdom (3132): reduced air pressure: 16.11.2017 05:00:00 - 22.11.2017 05:00:00 (GMT)West Freugh, United Kingdom (3132): visibility: 16.11.2017 05:00:00 - 22.11.2017 05:00:00 (GMT)West Freugh, United Kingdom (3132): precipitation: 16.11.2017 05:00:00 - 22.11.2017 05:00:00 (GMT)
Date & Time tt [°C] td [°C] ff [km/h] ff [kn] fx [km/h] fx [kn] dd ppp [hPa] vv [km] rr [mm]
22.11.2017 05:00:00 8,7 8,4 8 4 - - NNW 990,8 9 0,8
22.11.2017 04:00:00 9,0 8,2 13 7 - - NNW 991,4 13 0,0
22.11.2017 03:00:00 11,1 9,0 26 14 46 25 SW 991,5 18 0,0
22.11.2017 02:00:00 11,2 9,1 31 17 46 25 SW 992,7 22 0,0
22.11.2017 01:00:00 11,1 9,1 35 19 50 27 SW 992,9 19 0,0
22.11.2017 00:00:00 11,1 9,0 28 15 46 25 SW 994,0 24 0,0
21.11.2017 23:00:00 11,1 8,9 31 17 50 27 SW 994,1 30 0,0
21.11.2017 22:00:00 11,2 9,0 39 21 52 28 SW 993,6 30 0,0
21.11.2017 21:00:00 11,7 9,2 37 20 50 27 SW 994,5 35 0,0
21.11.2017 20:00:00 12,3 10,4 31 17 52 28 SW 994,6 45 0,0
21.11.2017 19:00:00 12,5 11,0 35 19 48 26 SW 995,0 35 0,0
21.11.2017 18:00:00 12,7 12,2 34 18 - - SW 995,5 14 0,0
21.11.2017 17:00:00 12,5 12,2 31 17 - - SSW 995,9 12 0,0
21.11.2017 16:00:00 12,4 12,0 34 18 - - SSW 996,8 12 0,0
21.11.2017 15:00:00 12,2 11,7 28 15 - - SSW 998,1 10 0,0
21.11.2017 14:00:00 12,0 11,5 35 19 48 26 SSW 999,1 7 0,2
21.11.2017 13:00:00 12,6 11,9 22 12 - - S 1000,0 14 0,0
21.11.2017 12:00:00 12,8 12,3 22 12 - - S 1001,7 18 0,0
21.11.2017 11:00:00 12,5 12,3 15 8 - - SSW 1002,6 13 -
21.11.2017 10:00:00 12,2 12,2 5 3 - - S 1003,2 14 0,0
21.11.2017 09:00:00 12,3 12,3 16 9 - - SW 1004,0 30 0,0
21.11.2017 08:00:00 10,9 10,9 11 6 - - E 1003,6 0,7 0,4
21.11.2017 07:00:00 10,9 10,9 9 5 - - S 1004,7 2,7 0,2
21.11.2017 06:00:00 10,6 10,6 5 3 - - SSE 1004,9 7 1,2
21.11.2017 05:00:00 10,6 10,6 4 2 - - SE 1004,9 1,8 1,4
21.11.2017 04:00:00 10,6 10,5 2 1 - - SE 1005,4 1,5 1,4
21.11.2017 03:00:00 10,8 10,7 4 2 - - SW 1005,8 4,8 0,4
21.11.2017 02:00:00 10,9 10,7 4 2 - - SSW 1006,3 2,8 0,8
21.11.2017 01:00:00 11,2 11,0 5 3 - - SW 1006,7 6 0,6
21.11.2017 00:00:00 11,4 11,2 9 5 - - SW 1007,0 6 1,6
20.11.2017 23:00:00 11,3 11,1 9 5 - - SW 1007,2 10 0,2
20.11.2017 22:00:00 11,3 11,0 11 6 - - SW 1007,7 6 0,6
20.11.2017 21:00:00 11,2 10,8 11 6 - - WSW 1007,9 7 0,8
20.11.2017 20:00:00 11,2 10,7 13 7 - - WSW 1007,9 10 0,2
20.11.2017 19:00:00 11,3 10,7 16 9 - - WSW 1008,0 19 0,0
20.11.2017 18:00:00 10,9 10,5 16 9 - - W 1008,0 30 0,2
20.11.2017 17:00:00 11,2 10,8 18 10 - - W 1008,0 9 0,4
20.11.2017 16:00:00 11,4 11,0 16 9 - - WSW 1007,8 10 0,4
20.11.2017 15:00:00 11,6 11,0 21 11 - - W 1007,7 5 0,0
20.11.2017 14:00:00 11,8 11,0 22 12 - - W 1007,5 2,2 0,0
20.11.2017 13:00:00 11,7 11,0 26 14 - - WSW 1007,3 12 0,2
20.11.2017 12:00:00 11,7 10,9 34 18 46 25 WSW 1007,1 30 0,2
20.11.2017 11:00:00 11,8 10,7 29 16 - - WSW 1007,3 28 0,0
20.11.2017 10:00:00 11,5 10,3 28 15 - - WSW 1007,1 21 0,0
20.11.2017 09:00:00 11,5 10,2 28 15 - - SW 1007,0 35 0,0
20.11.2017 08:00:00 11,4 10,3 22 12 - - WSW 1007,0 40 0,0
20.11.2017 07:00:00 11,0 10,6 15 8 - - SW 1007,4 35 0,0
20.11.2017 06:00:00 11,0 10,5 13 7 - - SW 1007,8 30 -
20.11.2017 05:00:00 11,1 10,3 15 8 - - SW 1008,1 23 0,0
20.11.2017 04:00:00 10,9 10,1 22 12 - - SW 1008,4 27 0,0
20.11.2017 03:00:00 10,8 10,3 28 15 - - SSW 1009,2 29 0,0
20.11.2017 02:00:00 10,3 10,1 28 15 - - SSW 1010,4 3,0 -
20.11.2017 01:00:00 9,9 9,6 24 13 - - S 1011,7 2,2 1,0
20.11.2017 00:00:00 9,8 9,3 22 12 - - S 1013,0 10 0,6
19.11.2017 23:00:00 9,5 9,1 16 9 - - SSW 1014,5 11 2,2
19.11.2017 22:00:00 9,0 8,7 9 5 - - S 1016,0 9 1,4
19.11.2017 21:00:00 8,8 8,7 13 7 - - S 1016,7 23 -
19.11.2017 20:00:00 7,9 7,3 13 7 - - SE 1017,9 3,2 0,2
19.11.2017 19:00:00 8,1 6,0 15 8 - - S 1018,8 18 0,0
19.11.2017 18:00:00 8,0 5,0 11 6 - - S 1019,4 50 0,0
19.11.2017 17:00:00 7,7 4,7 11 6 - - SSE 1020,0 40 0,0
19.11.2017 16:00:00 7,1 3,9 8 4 - - S 1020,6 45 0,0
19.11.2017 15:00:00 7,9 4,2 9 5 - - S 1021,1 35 0,0
19.11.2017 14:00:00 7,6 4,7 8 4 - - E 1021,7 35 0,0
19.11.2017 13:00:00 6,8 3,8 4 2 - - E 1022,5 45 0,0
19.11.2017 12:00:00 6,4 3,1 5 3 - - SSE 1023,2 45 0,0
19.11.2017 11:00:00 5,1 3,6 2 1 - - ESE 1023,3 35 0,0
19.11.2017 10:00:00 3,0 2,4 2 1 - - NE 1023,5 30 0,0
19.11.2017 09:00:00 1,5 0,7 4 2 - - ENE 1023,2 40 0,0
19.11.2017 08:00:00 0,8 -0,2 0 0 - - N 1023,0 29 0,0
19.11.2017 07:00:00 1,5 0,4 4 2 - - N 1022,7 35 0,0
19.11.2017 06:00:00 1,2 -0,3 4 2 - - SSE 1022,9 45 0,0
19.11.2017 05:00:00 2,5 0,8 2 1 - - WNW 1023,0 35 0,0
19.11.2017 04:00:00 3,6 1,4 9 5 - - WNW 1022,9 30 0,0
19.11.2017 03:00:00 2,3 -0,3 5 3 - - WSW 1023,0 40 0,0
19.11.2017 02:00:00 4,1 0,2 8 4 - - NW 1022,9 35 0,0
19.11.2017 01:00:00 5,5 0,6 9 5 - - NNW 1022,6 35 0,0
19.11.2017 00:00:00 1,9 0,2 5 3 - - S 1022,7 30 0,0
18.11.2017 23:00:00 1,1 -0,6 8 4 - - S 1022,6 27 0,0
18.11.2017 22:00:00 2,6 0,5 8 4 - - NW 1022,2 30 0,0
18.11.2017 21:00:00 4,8 2,3 8 4 - - NW 1022,0 30 0,0
18.11.2017 20:00:00 3,9 1,1 4 2 - - WNW 1022,0 35 0,0
18.11.2017 19:00:00 5,4 2,7 13 7 - - NW 1021,7 35 0,0
18.11.2017 18:00:00 6,4 2,9 9 5 - - NNW 1021,4 30 0,0
18.11.2017 17:00:00 6,3 2,7 21 11 - - NW 1020,9 45 0,0
18.11.2017 16:00:00 6,3 3,3 21 11 - - NW 1020,7 35 0,0
18.11.2017 15:00:00 7,1 3,4 18 10 - - WNW 1020,7 35 0,2
18.11.2017 14:00:00 8,1 4,2 22 12 - - NW 1020,9 35 0,0
18.11.2017 13:00:00 8,1 3,7 24 13 46 25 NW 1020,9 45 0,0
18.11.2017 12:00:00 9,0 4,7 21 11 - - NW 1020,8 20 0,0
18.11.2017 11:00:00 7,6 3,8 21 11 - - NW 1020,8 30 0,0
18.11.2017 10:00:00 7,8 4,3 15 8 - - WNW 1020,7 27 0,0
18.11.2017 09:00:00 7,6 4,4 21 11 - - NW 1020,5 26 0,0
18.11.2017 08:00:00 7,3 5,1 16 9 - - NW 1020,6 28 0,2
18.11.2017 07:00:00 7,5 6,2 15 8 54 29 W 1019,8 30 0,4
18.11.2017 06:00:00 7,4 5,7 29 16 48 26 W 1019,4 21 0,4
18.11.2017 05:00:00 7,8 5,4 29 16 48 26 W 1019,4 25 0,0
18.11.2017 04:00:00 7,3 5,4 31 17 52 28 W 1019,7 26 0,0
18.11.2017 03:00:00 7,6 5,8 37 20 54 29 W 1020,4 8 0,2
18.11.2017 02:00:00 7,6 5,2 34 18 46 25 W 1020,8 35 0,0
18.11.2017 01:00:00 7,7 5,4 28 15 - - WSW 1021,4 28 0,0
18.11.2017 00:00:00 7,3 5,0 26 14 - - W 1022,0 23 0,0
17.11.2017 23:00:00 7,5 5,1 29 16 - - W 1022,3 30 0,0
17.11.2017 22:00:00 7,9 4,9 29 16 - - W 1022,6 29 0,0
17.11.2017 21:00:00 7,2 4,9 22 12 - - WSW 1023,3 35 0,0
17.11.2017 20:00:00 7,7 5,3 24 13 - - WSW 1023,6 30 0,0
17.11.2017 19:00:00 7,5 5,1 29 16 - - W 1023,5 30 0,0
17.11.2017 18:00:00 7,6 5,0 29 16 - - W 1024,1 35 0,0
17.11.2017 17:00:00 7,3 4,7 26 14 - - W 1024,3 30 0,0
17.11.2017 16:00:00 7,5 4,7 28 15 - - WSW 1024,7 35 0,0
17.11.2017 15:00:00 8,2 4,8 34 18 48 26 WSW 1025,0 40 0,0
17.11.2017 14:00:00 8,9 4,7 31 17 - - W 1025,4 35 0,0
17.11.2017 13:00:00 8,4 5,3 26 14 - - W 1025,8 30 0,0
17.11.2017 12:00:00 7,5 4,3 29 16 - - WSW 1026,4 45 0,0
17.11.2017 11:00:00 7,6 4,6 26 14 - - WSW 1027,1 35 0,0
17.11.2017 10:00:00 7,2 4,5 26 14 - - SW 1027,2 40 0,0
17.11.2017 09:00:00 6,8 4,6 22 12 - - WSW 1027,3 30 0,0
17.11.2017 08:00:00 6,2 4,4 24 13 - - WSW 1026,8 35 0,0
17.11.2017 07:00:00 6,1 4,5 18 10 - - WSW 1026,9 35 0,0
17.11.2017 06:00:00 6,0 4,7 16 9 - - WSW 1026,9 29 0,0
17.11.2017 05:00:00 5,5 4,3 16 9 - - WSW 1027,2 30 0,0
17.11.2017 04:00:00 4,8 3,7 16 9 - - SW 1027,3 24 0,0
17.11.2017 03:00:00 4,7 3,1 13 7 - - WSW 1027,6 26 0,0
17.11.2017 02:00:00 4,7 3,4 15 8 - - W 1027,6 29 0,0
17.11.2017 01:00:00 4,8 3,0 13 7 - - W 1027,6 23 0,0
17.11.2017 00:00:00 5,2 3,4 16 9 - - WSW 1027,5 30 0,0
16.11.2017 23:00:00 6,2 3,5 16 9 - - W 1027,0 23 0,0
16.11.2017 22:00:00 6,2 4,1 16 9 - - W 1027,1 21 0,0
16.11.2017 21:00:00 5,8 3,3 15 8 - - W 1026,5 22 0,0
16.11.2017 20:00:00 5,9 3,3 11 6 - - W 1025,8 23 0,0
16.11.2017 19:00:00 6,2 3,2 18 10 - - W 1025,4 30 -
16.11.2017 18:00:00 6,7 2,7 16 9 - - W 1025,1 28 0,0
16.11.2017 17:00:00 6,2 2,8 18 10 - - W 1024,5 30 -
16.11.2017 16:00:00 6,9 2,7 26 14 57 31 WNW 1023,8 30 0,0
16.11.2017 15:00:00 8,2 3,3 24 13 - - W 1022,9 28 0,0
16.11.2017 14:00:00 9,5 4,2 24 13 - - WNW 1022,2 14 0,0
16.11.2017 13:00:00 9,1 2,6 26 14 - - WNW 1021,2 25 0,0
16.11.2017 12:00:00 8,4 5,1 24 13 48 26 W 1020,8 21 0,0
16.11.2017 11:00:00 8,3 4,6 26 14 46 25 WNW 1019,9 19 0,4
16.11.2017 10:00:00 8,6 4,4 28 15 48 26 WNW 1019,3 8 0,0
16.11.2017 09:00:00 7,7 3,8 29 16 50 27 WNW 1018,1 19 0,0
16.11.2017 08:00:00 8,0 4,6 31 17 54 29 WNW 1016,4 30 0,0
16.11.2017 07:00:00 9,2 6,7 28 15 - - W 1015,0 40 0,2
16.11.2017 06:00:00 9,2 7,8 22 12 52 28 WNW 1013,8 30 0,4
16.11.2017 05:00:00 10,5 8,8 34 18 50 27 SW 1012,8 21 0,0

tt = temperature
td = dewpoint
ff = wind speed
fx = gusts
dd = wind direction
ppp = reduced air pressure
vv = visibility
rr = precipitation

Next stations